TimeMST,TemperatureF,Dew PointF,Humidity,Sea Level PressureIn,VisibilityMPH,Wind Direction,Wind SpeedMPH,Gust SpeedMPH,PrecipitationIn,Events,Conditions,WindDirDegrees,DateUTC
12:53 AM,34.0,15.1,46,30.27,10.0,ESE,3.5,-,N/A,,Clear,110,2012-11-05 07:53:00
1:53 AM,30.9,15.1,52,30.27,10.0,Calm,Calm,-,N/A,,Clear,0,2012-11-05 08:53:00
3:53 AM,30.0,16.0,56,30.27,10.0,ENE,5.8,-,N/A,,Clear,60,2012-11-05 10:53:00
5:53 AM,28.9,16.0,58,30.32,10.0,ENE,3.5,-,N/A,,Clear,60,2012-11-05 12:53:00
6:53 AM,28.9,16.0,58,30.34,10.0,ENE,8.1,-,N/A,,Clear,60,2012-11-05 13:53:00
7:53 AM,36.0,19.9,52,30.34,10.0,East,4.6,-,N/A,,Clear,80,2012-11-05 14:53:00
8:53 AM,48.0,21.9,36,30.32,10.0,ESE,3.5,-,N/A,,Clear,110,2012-11-05 15:53:00
9:53 AM,57.0,23.0,27,30.28,10.0,WSW,4.6,-,N/A,,Clear,250,2012-11-05 16:53:00
10:37 AM,64.4,26.6,24,30.35,10.0,NNW,12.7,25.3,N/A,,Clear,330,2012-11-05 17:37:00
10:53 AM,66.0,26.1,22,30.25,10.0,NNW,9.2,-,N/A,,Clear,340,2012-11-05 17:53:00
11:53 AM,68.0,25.0,20,30.19,10.0,NW,9.2,19.6,N/A,,Clear,320,2012-11-05 18:53:00
12:53 PM,70.0,25.0,18,30.16,10.0,NW,13.8,21.9,N/A,,Clear,310,2012-11-05 19:53:00
1:53 PM,70.0,24.1,18,30.16,10.0,NW,16.1,24.2,N/A,,Clear,310,2012-11-05 20:53:00
2:53 PM,70.0,23.0,17,30.15,10.0,WNW,13.8,23.0,N/A,,Clear,300,2012-11-05 21:53:00
3:53 PM,69.1,23.0,18,30.14,10.0,WNW,12.7,-,N/A,,Clear,290,2012-11-05 22:53:00
4:53 PM,64.9,23.0,20,30.16,10.0,NW,12.7,-,N/A,,Clear,310,2012-11-05 23:53:00
5:53 PM,60.1,24.1,25,30.20,10.0,NW,9.2,-,N/A,,Clear,320,2012-11-06 00:53:00
6:53 PM,57.0,23.0,27,30.23,10.0,NNW,8.1,-,N/A,,Clear,340,2012-11-06 01:53:00
7:53 PM,50.0,21.9,33,30.25,10.0,ENE,3.5,-,N/A,,Clear,70,2012-11-06 02:53:00
8:53 PM,45.0,21.9,40,30.23,10.0,NE,10.4,-,N/A,,Clear,50,2012-11-06 03:53:00
9:53 PM,42.1,21.9,45,30.21,10.0,NE,9.2,-,N/A,,Clear,50,2012-11-06 04:53:00
10:53 PM,37.0,21.0,52,30.19,10.0,ENE,9.2,-,N/A,,Clear,70,2012-11-06 05:53:00
11:53 PM,35.1,21.0,57,30.21,10.0,ENE,10.4,-,N/A,,Clear,60,2012-11-06 06:53:00